GW0312 Weather Reports


time (UTC)temp
C
wind
direction
speed
KPH
gust
KPH
rain 1hr
cm
rain 24hr
cm
rain mn
cm
humidity
%
barometer
mb
20260510131557 15 49 12.9 22.5 0.00 0.03 0.00 77 1017.7
20260510130056 14 44 9.7 17.7 0.00 0.03 0.00 79 1017.5
20260510124603 14 323 8.0 17.7 0.00 0.03 0.00 80 1017.3
20260510123104 13 36 6.4 14.5 0.00 0.03 0.00 82 1017.1
20260510121555 13 19 4.8 9.7 0.00 0.03 0.00 83 1017.0
20260510120056 13 20 6.4 11.3 0.00 0.03 0.00 83 1016.9
20260510114557 13 17 6.4 12.9 0.00 0.03 0.00 83 1016.8
20260510113055 13 40 6.4 11.3 0.00 0.03 0.00 83 1016.3
20260510111557 13 340 4.8 8.0 0.00 0.03 0.00 81 1015.8
20260510110059 13 358 4.8 9.7 0.00 0.03 0.00 80 1015.8
20260510104556 13 27 6.4 12.9 0.00 0.03 0.00 78 1015.8
20260510103100 14 18 3.2 8.0 0.00 0.03 0.00 75 1015.6
20260510101607 14 55 3.2 8.0 0.00 0.03 0.00 75 1015.4
20260510094555 15 0 0.0 4.8 0.00 0.03 0.00 72 1015.0
20260510093059 15 49 4.8 8.0 0.00 0.03 0.00 70 1014.9
20260510091556 13 18 0.0 1.6 0.00 0.03 0.00 73 1014.8
20260510090057 13 0 0.0 0.0 0.00 0.03 0.00 76 1014.4
20260510084553 12 0 0.0 0.0 0.00 0.03 0.00 79 1014.1
20260510083055 12 0 0.0 1.6 0.00 0.03 0.00 80 1014.0
20260510081600 12 222 0.0 1.6 0.00 0.03 0.00 77 1014.4
20260510080055 12 0 0.0 1.6 0.00 0.03 0.00 77 1014.2
20260510074557 13 0 0.0 0.0 0.00 0.03 0.00 75 1014.1
20260510073105 12 0 0.0 3.2 0.00 0.03 0.00 75 1014.1
20260510071558 13 180 0.0 3.2 0.00 0.03 0.00 74 1014.0
20260510070055 12 274 0.0 4.8 0.00 0.03 0.00 76 1014.0
20260510064554 13 0 0.0 3.2 0.00 0.05 0.00 72 1014.0
20260510063053 15 0 0.0 1.6 0.00 0.05 0.00 72 1014.0
20260510061602 14 0 0.0 1.6 0.00 0.05 0.00 69 1014.2
20260510060055 16 0 0.0 3.2 0.00 0.05 0.00 67 1014.2
20260510054605 15 237 1.6 9.7 0.00 0.05 0.00 69 1014.2
20260510053056 14 0 0.0 1.6 0.00 0.05 0.00 71 1013.8
20260510051557 14 0 0.0 0.0 0.00 0.05 0.00 69 1013.4
20260510050059 14 0 0.0 1.6 0.00 0.05 0.00 69 1013.6
20260510044555 15 248 0.0 3.2 0.00 0.05 0.05 69 1013.7
20260510043056 14 0 0.0 0.0 0.00 0.05 0.05 71 1013.6
20260510041634 15 0 0.0 1.6 0.00 0.05 0.05 69 1013.3
20260510040053 15 211 0.0 3.2 0.00 0.05 0.05 68 1013.2
20260510034604 15 0 0.0 1.6 0.00 0.08 0.05 68 1013.3
20260510033113 15 0 0.0 0.0 0.00 0.08 0.05 68 1013.3
20260510031559 15 0 0.0 0.0 0.00 0.08 0.05 68 1013.2
20260510030056 16 0 0.0 3.2 0.00 0.08 0.05 66 1013.0
20260510024610 17 0 0.0 0.0 0.00 0.08 0.05 62 1012.5
20260510023059 17 0 0.0 0.0 0.00 0.08 0.05 61 1012.3
20260510021600 17 0 0.0 0.0 0.00 0.08 0.05 63 1012.2
20260510020110 17 0 0.0 0.0 0.00 0.08 0.05 64 1011.9
20260510014613 18 0 0.0 0.0 0.00 0.08 0.05 61 1011.6
20260510013103 19 0 0.0 0.0 0.00 0.08 0.05 57 1011.3
20260510011553 21 0 0.0 0.0 0.00 0.08 0.05 52 1011.2
20260510010101 22 0 0.0 0.0 0.00 0.08 0.05 47 1011.1
20260510004558 23 0 0.0 0.0 0.00 0.08 0.05 47 1011.0
20260510003053 23 0 0.0 0.0 0.00 0.08 0.05 52 1010.8
20260510001553 25 0 0.0 0.0 0.00 0.08 0.05 47 1010.8
20260510000054 25 0 0.0 1.6 0.00 0.08 0.05 50 1010.8
20260509234553 25 278 1.6 4.8 0.00 0.08 0.05 50 1010.8
20260509233056 25 319 1.6 4.8 0.00 0.08 0.05 45 1010.8
20260509231606 25 293 1.6 9.7 0.00 0.08 0.05 52 1010.8
20260509230058 25 295 3.2 9.7 0.00 0.08 0.05 48 1010.8
20260509224556 26 318 3.2 8.0 0.00 0.08 0.05 41 1010.8
20260509223055 26 320 3.2 12.9 0.00 0.08 0.05 42 1010.8
20260509221556 26 188 1.6 8.0 0.00 0.08 0.05 42 1010.7
20260509220057 26 322 8.0 12.9 0.00 0.08 0.05 42 1010.7
20260509214554 26 288 3.2 8.0 0.00 0.08 0.05 42 1010.7
20260509213057 26 274 1.6 6.4 0.00 0.08 0.05 42 1010.7
20260509211559 26 325 3.2 9.7 0.00 0.08 0.05 42 1010.6
20260509210108 26 44 0.0 6.4 0.00 0.08 0.05 43 1010.8
20260509204558 26 311 3.2 16.1 0.00 0.08 0.05 41 1011.0
20260509203056 25 62 4.8 11.3 0.00 0.08 0.05 46 1011.1
20260509201553 26 311 11.3 17.7 0.00 0.08 0.05 42 1011.3
20260509200056 25 312 9.7 16.1 0.00 0.08 0.05 37 1011.4
20260509194555 26 323 3.2 12.9 0.00 0.08 0.05 41 1011.4
20260509193053 26 293 6.4 11.3 0.00 0.08 0.05 43 1011.3
20260509191556 25 288 8.0 12.9 0.00 0.08 0.05 45 1011.3
20260509190057 25 258 4.8 12.9 0.00 0.08 0.05 50 1011.4
20260509184556 26 335 1.6 11.3 0.00 0.08 0.05 40 1011.2
20260509183059 25 356 0.0 11.3 0.00 0.08 0.05 42 1011.2
20260509181600 25 354 3.2 12.9 0.00 0.08 0.05 43 1011.3
20260509180057 25 0 0.0 17.7 0.00 0.08 0.05 50 1011.5
20260509174557 25 285 8.0 14.5 0.00 0.08 0.05 54 1011.5
20260509173119 25 326 6.4 12.9 0.00 0.08 0.05 48 1011.8
20260509171553 24 324 3.2 19.3 0.00 0.08 0.05 53 1011.9
20260509170109 24 310 4.8 12.9 0.00 0.08 0.05 51 1011.8
20260509164558 24 305 6.4 14.5 0.00 0.08 0.05 55 1011.7
20260509163055 23 12 6.4 17.7 0.00 0.08 0.05 51 1011.7
20260509161554 23 356 6.4 14.5 0.00 0.08 0.05 55 1011.8
20260509160054 22 309 6.4 16.1 0.00 0.08 0.05 62 1011.8
20260509154557 22 290 6.4 12.9 0.00 0.08 0.05 64 1011.7
20260509153053 21 327 6.4 11.3 0.00 0.08 0.05 63 1011.8
20260509151616 21 313 8.0 12.9 0.00 0.08 0.05 67 1011.8
20260509150055 20 320 8.0 11.3 0.00 0.08 0.05 68 1011.6
20260509144556 20 309 8.0 12.9 0.00 0.08 0.05 72 1011.7
20260509143104 19 286 6.4 12.9 0.00 0.08 0.05 76 1011.4
20260509141556 18 288 8.0 12.9 0.00 0.08 0.05 79 1011.5
20260509140054 17 292 8.0 14.5 0.03 0.08 0.05 82 1011.5
20260509134559 16 310 6.4 11.3 0.03 0.08 0.05 84 1011.3
20260509133053 15 276 8.0 11.3 0.03 0.08 0.05 87 1011.2